Location: Powder Track
(41.8531°N, 72.3584°W)
Time: 07:46:28
(UTC+00:00)

Transit 4A - Pass Details

Date: 06 August 2021
Orbit: 871 x 974 km, 66.8° (Epoch: 20 September)

Event Time Altitude Azimuth Distance (km) Brightness Sun altitude
Rises 09:54:45 0° 340° (NNW) 3,471 10.9 0.2°
Reaches altitude 10° 09:59:41 10° 16° (NNE) 2,543 10.8 1.1°
Maximum altitude 10:01:07 11° 31° (NNE) 2,486 11.1 1.3°
Drops below altitude 10° 10:02:34 10° 45° (NE) 2,552 11.6 1.6°
Sets 10:07:33 0° 81° (E) 3,513 13.1 2.4°
